Lid_Strength_Index
-1 -1 -1 -1 -1 -1 -1 -1 -0 -0 -0 -1 -1 -1 -1 -2 -1 6 7 4 2 -2 -2 1 2 4 4 6 5 6 10 13 11 12 11 9 10 9 9 9 9 8 9 8 6
-1 -1 -1 -1 -1 -1 -1 -0 -0 -0 -1 -1 -1 -1 -1 -1 5 8 3 -2 -1 -2 3 4 6 5 7 7 7 9 12 11 8 8 9 8 10 10 10 10 9 9 8 8 6
-1 -1 -1 -1 -1 -1 -1 0 -1 0 -1 -1 -1 -1 -1 -0 8 8 -2 -3 -1 -0 3 4 4 5 9 7 8 9 11 10 7 7 7 8 10 9 10 11 9 8 8 8 7
-1 -1 -1 -1 -1 -1 -1 0 -1 -0 -1 -1 -1 -2 -1 4 14 7 -3 -3 -1 1 5 5 6 8 10 10 8 11 8 7 7 7 8 9 9 10 9 9 8 7 8 8 7
-1 -1 -1 -1 -1 -1 0 0 -0 -0 -1 -0 -1 -2 4 9 9 5 -3 -1 4 4 6 6 8 9 10 9 9 10 9 7 7 7 8 8 9 9 10 8 8 8 8 8 7
-1 -1 -1 -1 -1 -0 0 -0 -0 -0 -0 -0 -1 -1 7 12 7 4 4 6 5 5 6 6 7 7 9 10 10 9 9 9 8 8 9 10 10 10 9 9 9 8 8 8 7
-1 -1 -1 -0 -0 0 0 0 0 -0 0 -0 -1 2 8 9 7 6 5 7 6 5 6 5 6 8 9 10 9 9 11 10 10 9 9 10 11 11 9 9 10 9 9 9 8
-0 -0 0 0 0 0 0 0 0 -0 -0 -0 -1 6 10 6 7 6 7 7 6 6 5 5 5 7 8 8 10 12 13 14 12 10 9 10 14 11 10 10 10 10 10 9 8
0 1 1 1 1 0 0 0 0 0 -0 -1 5 7 10 4 9 8 8 8 7 6 6 5 6 9 9 12 14 14 16 16 13 10 11 12 14 11 11 11 10 11 10 10 9
1 1 1 1 1 1 1 1 2 2 1 2 4 12 10 10 9 8 9 7 7 7 8 8 10 12 13 13 17 16 17 16 16 13 12 13 13 11 11 11 11 10 11 10 10
2 2 2 2 1 1 4 6 9 9 8 11 11 12 10 8 8 9 8 8 8 9 13 11 13 15 14 13 13 15 16 16 15 12 13 13 13 11 10 11 11 10 10 10 9
2 2 2 2 2 2 5 8 9 8 11 8 8 8 7 8 10 10 8 11 11 13 12 13 15 13 12 12 12 13 15 15 14 12 12 14 14 12 11 11 10 10 10 9 8
3 3 3 2 3 6 8 7 6 7 12 11 8 9 9 8 10 11 9 11 12 13 13 15 14 10 11 13 13 14 15 14 14 13 13 14 15 13 12 11 11 10 9 8 8
3 3 3 3 7 9 7 5 6 8 15 13 10 10 9 9 11 9 9 10 12 14 14 14 11 12 13 13 13 16 12 12 13 15 17 14 18 16 14 13 12 11 10 9 9
4 4 3 5 10 8 6 5 7 9 19 12 11 8 10 11 11 10 9 10 13 13 13 14 13 13 13 12 12 14 11 12 13 15 16 16 17 15 15 15 13 12 11 10 9
4 4 4 6 8 7 7 7 9 15 20 13 11 12 12 12 11 9 10 9 10 12 13 12 11 12 12 11 11 11 13 13 15 16 19 16 16 15 15 14 13 12 11 10 10
5 4 5 5 8 7 7 10 16 19 13 13 12 10 13 13 12 12 12 14 15 16 18 15 14 12 11 13 12 12 15 18 19 20 18 15 16 15 14 14 13 12 11 9 10
5 4 4 5 6 6 10 13 19 15 14 11 11 11 14 12 13 12 14 15 13 15 17 18 17 14 12 13 15 14 15 18 20 21 19 16 18 15 13 12 12 11 11 11 10
5 7 7 7 7 9 12 17 18 15 12 12 12 14 14 12 13 12 14 14 12 11 16 16 17 11 9 10 11 14 15 13 15 14 17 16 15 12 11 12 12 11 11 11 10
8 8 8 8 8 10 14 15 14 12 12 12 15 14 16 14 14 15 14 11 11 10 10 12 16 11 11 9 11 12 12 15 15 19 20 16 17 15 13 12 11 12 11 10 10
10 10 8 9 8 11 16 16 12 11 13 14 14 14 14 16 15 16 14 12 10 11 10 11 13 14 12 13 13 12 13 13 13 13 19 21 17 13 14 13 12 11 10 9 9
13 14 9 9 13 15 16 14 12 14 14 14 14 14 15 15 16 15 14 13 12 12 13 11 13 17 16 12 10 10 12 12 17 18 16 17 17 11 11 11 11 11 10 8 8
15 15 12 11 17 19 18 17 14 15 15 15 16 14 15 16 19 16 15 12 12 13 14 13 16 20 20 17 14 14 11 10 12 14 17 19 17 10 10 11 11 11 9 8 8
15 19 16 15 17 19 19 19 18 15 15 15 16 15 16 17 16 18 16 14 13 13 10 11 15 17 20 17 14 16 13 12 11 15 16 16 15 13 12 12 11 10 9 9 9
15 17 16 20 19 19 19 18 19 18 15 15 17 16 17 19 18 18 16 16 13 11 12 14 18 16 15 13 12 12 12 12 13 12 15 13 13 11 9 11 11 10 9 10 11
16 17 16 18 18 20 18 20 18 16 16 17 18 16 16 19 17 18 16 15 15 14 15 14 16 13 16 11 11 12 11 11 11 11 12 11 12 8 8 7 7 9 9 10 11
13 13 16 17 19 20 20 18 16 16 16 15 16 17 17 16 14 13 12 13 14 15 15 15 15 16 16 12 12 15 12 11 11 10 10 14 12 9 9 9 8 7 8 9 10